Terminal Aerodrome Forecast
Issued by NWS

Home | Current Version | Previous Version | Text Only | Print | Product List | Glossary On
Versions: 1 2 3 4 5 6 7 8 9 10 11 12 13 14 15
241
FTAK31 PAJN 181720
TAFAJN
TAF
PAJN 181720Z 1818/1918 VRB02KT P6SM FEW250
     FM190900 08004KT P6SM SCT040 OVC150=

USA.gov is the U.S. government's official web portal to all federal, state and local government web resources and services.